Temperature
6 6 6 6 5 5 5 5 4 4 4 5 5 5 5 5 5 5 5 5 5 5 5 5 5 5 5 5 5 5 5 5 5 5 5 5 5 5
6 6 6 5 5 5 5 5 4 4 3 4 4 4 4 4 4 4 5 5 5 5 5 5 5 5 5 5 4 5 5 5 5 5 5 5 5 5
6 6 5 5 5 5 5 5 4 4 3 4 4 4 4 4 4 4 4 4 5 4 4 4 4 4 4 4 4 4 4 4 4 4 4 4 4 4
5 5 5 5 5 5 4 4 4 4 3 3 4 4 4 4 4 4 4 4 4 4 4 4 4 4 4 4 4 4 4 4 4 4 4 4 4 4
5 5 5 5 5 4 4 4 4 3 3 3 3 3 3 3 3 4 4 4 4 4 4 4 4 4 4 4 4 4 4 4 4 4 4 4 4 4
5 5 4 4 4 4 4 4 3 3 3 3 3 3 3 3 3 3 3 4 4 4 3 4 4 4 4 4 4 4 4 4 3 3 3 3 3 3
4 4 4 4 4 4 4 4 3 3 3 3 2 2 2 2 2 3 3 3 3 3 3 4 3 3 3 3 3 3 3 3 3 3 3 3 3 3
4 4 4 4 4 4 4 3 3 3 2 2 2 2 2 2 2 2 2 2 2 3 3 3 3 3 3 3 3 3 3 3 3 3 3 3 3 3
3 3 4 3 3 3 3 3 3 2 2 2 2 2 2 2 2 2 1 2 2 2 2 3 3 3 3 3 2 2 2 2 2 2 2 2 2 2
3 3 3 3 3 3 3 3 3 3 2 2 2 2 2 2 1 1 1 1 2 2 2 2 2 3 2 2 2 2 2 2 2 2 2 2 2 2
2 2 2 2 2 2 2 2 2 2 2 2 2 2 2 2 1 1 1 1 1 2 1 1 2 2 3 2 2 2 2 2 2 2 2 2 2 2
2 2 2 2 2 2 2 2 2 2 2 2 2 2 2 1 1 1 1 1 1 1 1 1 1 1 1 2 2 2 2 2 2 2 2 2 2 2
1 1 1 1 1 1 1 1 1 2 2 2 2 2 2 2 2 1 1 1 1 1 1 1 1 1 0 1 2 2 2 2 2 2 2 1 1 1
0 1 1 1 1 1 1 1 1 1 1 1 1 1 2 2 2 1 1 1 1 1 1 1 1 1 0 0 1 1 2 1 1 1 1 1 1 1
0 0 0 1 1 1 1 1 1 1 1 1 1 1 1 1 1 1 1 1 1 1 1 1 1 1 0 0 0 1 1 1 1 1 1 1 1 1
-0 0 0 0 1 1 1 1 1 1 1 1 1 1 1 1 1 1 1 1 1 1 1 1 1 1 1 0 0 0 0 0 1 1 1 1 1 1
-1 -0 -0 0 0 1 1 1 0 0 0 0 0 0 0 1 1 1 1 1 1 1 1 1 1 0 0 0 0 0 0 0 0 0 0 1 1 0
-1 -1 -1 -0 -0 -0 0 0 0 0 0 0 -0 -0 0 0 0 0 0 0 0 0 0 0 0 0 0 0 -0 -0 -0 0 -0 -0 -0 0 1 1
-2 -1 -1 -1 -1 -1 -1 -1 -0 -0 -0 -0 -0 -0 -0 0 0 0 0 0 0 0 0 -0 -0 0 -0 -0 -0 -0 -1 -0 -0 -0 -0 -0 -0 0
-2 -2 -2 -2 -1 -1 -1 -1 -1 -1 -1 -1 -1 -1 -0 -0 -0 -0 -0 -0 -0 -0 -0 -0 -0 -0 -1 -1 -1 -1 -1 -1 -1 -1 -1 -0 -0 0
-2 -2 -2 -2 -2 -2 -2 -1 -1 -1 -1 -1 -1 -1 -1 -1 -0 -0 -0 -0 -0 -0 -0 -1 -1 -1 -1 -1 -1 -1 -1 -1 -1 -1 -1 -1 -1 -0
-3 -3 -3 -2 -2 -2 -2 -2 -2 -2 -1 -1 -1 -1 -1 -1 -1 -1 -1 -1 -1 -1 -1 -1 -1 -1 -1 -1 -1 -1 -1 -1 -1 -1 -1 -1 -2 -2
-3 -3 -3 -3 -3 -2 -2 -2 -2 -2 -2 -2 -2 -1 -1 -1 -1 -1 -1 -1 -1 -1 -1 -1 -1 -1 -1 -1 -1 -1 -1 -1 -1 -1 -1 -1 -1 -1
Wind_Speed
2 2 2 2 2 1 1 2 1 3 5 3 2 3 5 7 9 8 8 11 12 12 12 12 12 12 11 10 10 10 10 10 11 11 11 11 11 10
1 1 2 2 2 2 2 2 2 2 4 3 3 5 5 6 9 8 8 11 11 11 11 12 11 12 11 10 10 10 10 10 11 11 12 11 11 11
1 2 2 2 2 2 2 2 2 2 4 5 3 4 4 5 6 7 7 6 7 10 11 11 11 11 12 11 10 10 10 10 11 11 11 10 11 12
2 2 3 2 2 2 2 3 3 2 3 6 5 4 4 5 4 5 5 6 6 9 11 11 11 11 11 11 11 10 10 10 11 11 11 11 12 12
2 2 3 2 3 3 3 3 3 2 2 3 5 4 4 4 5 5 5 4 6 8 10 10 10 11 11 12 11 11 10 10 10 10 11 12 12 13
2 2 3 3 4 4 3 3 2 2 2 2 4 4 4 4 4 5 6 5 6 6 7 9 10 10 11 11 11 12 11 10 11 11 11 12 12 12
2 3 3 3 4 3 3 2 2 2 2 2 3 4 4 4 4 4 5 6 5 3 4 5 6 5 7 10 11 11 11 11 11 11 12 12 12 12
3 3 3 3 4 4 4 3 2 2 3 3 3 4 5 5 4 4 4 5 4 3 4 6 4 4 5 5 9 11 11 11 12 12 12 12 12 12
3 3 3 4 4 3 3 3 3 4 3 3 4 5 5 5 4 4 4 5 5 4 4 5 4 4 5 7 10 10 10 12 12 12 12 12 13 12
2 2 3 3 3 3 2 2 3 3 4 3 4 5 5 4 4 4 4 4 4 3 2 3 3 4 5 6 8 8 10 12 13 12 12 12 13 12
2 2 3 3 4 4 2 2 3 3 4 5 6 5 6 4 2 2 2 3 4 3 1 1 3 4 4 3 5 9 11 12 13 13 14 14 13 12
2 3 3 4 4 3 2 2 4 4 3 4 4 5 4 3 2 1 2 2 3 2 1 1 2 3 3 3 3 6 8 10 13 13 14 15 14 10
2 3 3 5 5 4 3 3 5 4 2 2 2 3 3 2 2 2 2 2 3 3 2 1 2 2 2 3 4 4 5 6 7 9 13 15 15 11
3 3 3 5 5 5 4 4 4 3 1 1 2 2 3 3 3 3 2 2 2 3 3 2 1 2 2 3 4 4 5 5 5 6 8 13 13 13
3 4 4 4 4 3 4 4 2 1 1 1 2 3 3 3 3 2 2 3 3 2 1 2 2 2 1 2 3 4 4 4 4 5 6 7 6 7
2 3 4 3 2 3 2 2 1 1 1 2 2 2 2 2 2 2 2 3 3 3 3 3 2 2 2 2 2 4 4 4 5 6 6 6 6 5
2 2 2 1 1 2 1 1 1 1 1 1 1 2 2 2 3 3 2 2 2 3 4 5 5 3 1 1 2 3 4 4 4 5 5 6 5 5
2 2 2 2 2 2 2 2 2 2 1 1 1 1 2 2 2 3 2 1 2 2 3 4 5 4 3 2 1 2 3 3 5 5 4 4 6 6
1 2 2 2 2 2 2 2 2 2 1 1 1 2 2 2 2 2 2 2 2 2 2 3 3 3 4 4 4 2 2 4 5 4 4 3 4 7
1 2 2 2 2 2 2 2 2 2 1 1 1 1 1 1 1 1 1 2 2 2 2 2 2 2 1 2 3 4 5 3 3 4 4 4 4 7
2 2 2 2 2 2 3 2 2 2 2 2 1 1 1 1 1 1 1 2 2 1 2 3 3 4 2 1 2 3 4 6 4 3 4 4 4 4
2 3 3 3 2 2 2 2 2 2 2 2 2 1 2 2 2 1 1 1 1 2 2 2 3 2 2 2 3 4 5 6 7 7 5 3 1 2
3 3 3 3 2 2 2 3 3 2 2 2 2 2 2 2 1 1 1 1 1 1 2 2 2 2 2 2 2 3 4 5 4 5 4 7 6 7
Wind_Direction
222 228 239 241 238 232 217 208 227 299 299 281 296 307 316 317 323 330 329 331 333 334 337 339 342 346 345 348 348 346 343 341 338 334 331 327 328 328
234 238 254 254 247 241 239 248 234 242 277 286 288 304 311 320 326 331 327 336 339 339 341 342 345 347 347 345 345 343 342 340 339 336 335 334 333 330
267 252 262 263 254 248 247 251 251 242 277 297 298 309 313 318 325 331 330 330 335 340 341 342 345 348 349 349 346 344 343 344 345 344 344 341 340 338
273 267 273 275 274 265 249 252 256 256 269 299 311 319 312 309 316 323 332 334 330 337 342 343 345 348 349 350 349 346 349 349 349 350 349 346 343 340
281 266 266 263 272 276 270 257 259 278 283 293 306 311 310 317 326 326 327 331 333 336 341 344 346 347 350 351 353 352 351 352 354 354 351 348 344 339
290 283 268 256 260 269 270 273 281 283 295 298 305 314 312 315 325 328 331 335 333 336 345 345 343 347 352 352 355 357 357 355 355 353 350 347 343 339
304 304 297 290 290 285 286 284 286 285 289 300 308 317 318 324 316 314 320 323 324 332 336 337 341 348 351 349 352 355 356 355 351 348 345 344 341 339
287 303 307 305 300 296 297 302 290 276 287 285 289 298 298 304 308 312 317 326 315 324 330 319 333 330 335 342 344 350 353 353 349 346 346 344 342 339
273 288 309 305 312 284 287 303 294 297 291 274 273 282 284 289 291 298 308 311 296 300 318 304 316 314 322 332 338 346 350 352 350 347 345 344 342 338
276 274 283 293 291 308 285 283 286 283 291 290 272 276 279 279 267 268 282 302 305 303 311 291 307 307 318 322 331 342 349 351 351 352 349 345 342 336
288 284 285 283 298 323 317 294 303 305 318 312 311 313 311 308 312 322 318 320 313 304 303 286 300 309 307 308 322 338 346 349 351 353 352 349 347 344
292 284 288 296 309 315 296 283 290 303 318 321 327 329 322 297 312 281 258 283 303 290 277 308 308 330 317 301 316 333 344 345 348 350 350 350 348 349
285 290 288 299 306 307 303 283 294 309 304 303 311 324 334 328 314 310 290 268 270 271 266 290 296 300 289 300 312 321 333 337 343 345 346 345 346 347
276 284 290 303 303 304 302 308 320 328 298 308 316 320 323 321 315 317 323 330 292 265 254 256 265 281 301 308 305 319 325 332 340 338 339 340 342 342
284 292 296 299 305 300 311 323 336 321 298 309 303 306 313 312 316 327 346 13 19 10 329 287 285 285 279 281 300 314 318 321 333 339 336 335 331 333
301 301 302 299 310 312 319 319 319 294 297 280 296 314 326 332 331 326 324 339 352 348 350 346 320 287 293 293 287 301 312 313 326 332 331 326 323 320
313 316 314 318 321 323 325 332 325 314 315 327 324 329 333 336 333 333 337 350 353 336 340 346 351 341 262 262 303 304 316 319 318 330 334 330 324 320
301 284 284 293 298 303 298 303 304 300 304 315 312 308 303 308 323 334 344 358 350 334 335 338 345 353 357 344 255 295 321 315 325 330 332 327 324 327
266 272 276 279 282 289 287 284 288 294 296 296 306 305 304 306 313 319 336 349 347 335 331 336 352 8 3 340 325 320 318 324 331 331 328 318 309 315
278 271 275 280 278 279 279 283 288 295 300 300 299 294 292 296 295 304 311 326 326 334 338 342 346 345 319 295 299 314 321 321 326 326 326 320 309 306
283 281 275 275 275 277 280 276 275 276 277 279 280 283 278 281 284 293 299 316 340 325 316 315 307 322 321 336 332 328 325 323 317 310 321 327 332 346
281 280 277 273 274 272 279 275 270 271 270 270 277 281 279 273 266 269 278 288 300 305 310 317 328 344 8 9 336 326 331 336 338 334 321 305 330 345
274 274 276 276 271 270 270 269 263 260 260 262 271 275 269 271 268 261 270 280 299 322 340 340 345 357 356 343 333 332 334 338 345 355 356 348 328 305
Height
1508 1508 1508 1509 1508 1508 1507 1506 1505 1501 1498 1496 1495 1494 1492 1490 1488 1485 1483 1480 1478 1476 1473 1471 1468 1466 1463 1461 1459 1458 1456 1455 1453 1452 1451 1449 1448 1446
1505 1506 1505 1505 1505 1505 1504 1503 1502 1501 1497 1494 1493 1491 1489 1487 1485 1483 1480 1478 1475 1473 1471 1468 1466 1464 1461 1459 1457 1456 1454 1452 1450 1449 1448 1446 1445 1443
1502 1502 1502 1502 1501 1501 1500 1500 1499 1498 1495 1491 1490 1488 1486 1484 1482 1480 1478 1475 1472 1470 1468 1466 1464 1462 1459 1457 1455 1453 1452 1450 1448 1446 1444 1443 1441 1439
1499 1499 1499 1499 1498 1497 1497 1496 1495 1494 1492 1489 1487 1485 1483 1481 1479 1477 1475 1472 1470 1468 1466 1463 1461 1459 1457 1455 1453 1451 1449 1447 1445 1443 1441 1439 1438 1435
1496 1496 1495 1495 1495 1494 1494 1493 1492 1491 1489 1487 1484 1482 1481 1479 1476 1474 1472 1470 1468 1465 1463 1461 1459 1457 1455 1452 1450 1448 1446 1444 1442 1440 1438 1436 1434 1432
1493 1492 1492 1492 1491 1491 1490 1489 1488 1487 1486 1484 1481 1480 1478 1476 1474 1471 1468 1467 1465 1463 1461 1459 1457 1455 1453 1450 1448 1445 1444 1441 1439 1437 1435 1433 1431 1428
1489 1489 1489 1488 1488 1488 1487 1486 1484 1483 1482 1480 1479 1477 1475 1473 1471 1469 1466 1464 1462 1460 1458 1456 1454 1452 1450 1448 1445 1443 1441 1439 1437 1434 1432 1430 1427 1425
1486 1485 1485 1485 1485 1484 1484 1483 1482 1480 1479 1477 1476 1474 1472 1471 1469 1467 1465 1463 1459 1459 1456 1454 1453 1450 1448 1446 1444 1441 1439 1437 1434 1431 1429 1427 1424 1422
1482 1482 1482 1481 1481 1481 1480 1479 1478 1477 1477 1475 1473 1471 1470 1469 1467 1465 1463 1461 1459 1457 1454 1451 1450 1448 1446 1444 1442 1440 1437 1434 1431 1429 1426 1424 1421 1419
1479 1478 1478 1478 1478 1477 1476 1475 1474 1474 1473 1471 1470 1469 1468 1466 1465 1464 1462 1459 1457 1455 1454 1450 1448 1446 1444 1442 1440 1438 1435 1432 1429 1426 1424 1421 1419 1416
1476 1475 1475 1474 1474 1474 1473 1472 1471 1470 1469 1468 1467 1466 1464 1463 1462 1460 1458 1456 1453 1452 1451 1449 1446 1444 1442 1440 1438 1436 1434 1431 1428 1425 1422 1419 1416 1413
1472 1472 1472 1471 1471 1470 1469 1468 1467 1466 1465 1464 1464 1462 1461 1460 1459 1458 1456 1454 1452 1450 1449 1447 1445 1443 1440 1438 1436 1434 1432 1429 1426 1423 1420 1417 1414 1410
1469 1469 1468 1468 1468 1467 1466 1465 1464 1463 1462 1461 1460 1459 1458 1457 1456 1455 1454 1452 1451 1449 1448 1446 1443 1442 1440 1436 1434 1432 1430 1426 1424 1421 1419 1416 1412 1409
1466 1465 1465 1465 1464 1463 1462 1462 1461 1460 1459 1458 1457 1456 1454 1453 1453 1452 1451 1450 1449 1447 1446 1444 1442 1440 1438 1435 1432 1430 1428 1425 1422 1419 1417 1414 1411 1407
1463 1462 1462 1461 1461 1460 1459 1459 1458 1457 1455 1454 1454 1453 1452 1451 1450 1449 1448 1447 1447 1445 1444 1442 1441 1439 1437 1435 1432 1429 1425 1423 1421 1418 1415 1412 1409 1406
1459 1459 1459 1458 1457 1457 1456 1455 1454 1454 1453 1452 1451 1451 1450 1449 1448 1447 1446 1445 1444 1443 1442 1441 1439 1438 1435 1433 1431 1428 1426 1423 1420 1417 1414 1411 1408 1405
1456 1455 1455 1454 1454 1453 1453 1452 1451 1451 1450 1450 1449 1448 1448 1447 1446 1445 1444 1443 1442 1441 1439 1438 1437 1436 1434 1432 1430 1427 1425 1422 1419 1416 1413 1410 1408 1405
1453 1452 1451 1451 1450 1450 1449 1449 1448 1448 1448 1447 1447 1446 1446 1445 1444 1444 1443 1442 1441 1440 1438 1437 1435 1434 1432 1430 1429 1426 1424 1421 1418 1416 1412 1409 1406 1404
1450 1449 1448 1448 1448 1447 1447 1446 1446 1446 1445 1445 1445 1444 1444 1443 1442 1442 1441 1440 1439 1438 1437 1436 1434 1432 1430 1428 1427 1426 1423 1420 1417 1415 1412 1409 1406 1404
1446 1446 1446 1446 1445 1445 1444 1444 1444 1443 1443 1443 1442 1442 1442 1441 1441 1440 1440 1439 1438 1437 1436 1435 1433 1432 1430 1429 1427 1425 1423 1419 1416 1414 1411 1409 1407 1405
1443 1443 1443 1443 1443 1442 1442 1441 1441 1441 1440 1440 1440 1440 1440 1440 1439 1439 1438 1438 1437 1436 1434 1433 1432 1432 1430 1429 1426 1424 1423 1420 1417 1414 1411 1408 1406 1404
1441 1441 1440 1440 1440 1440 1439 1439 1439 1438 1438 1438 1438 1438 1438 1438 1438 1437 1437 1436 1436 1435 1434 1433 1432 1431 1429 1427 1425 1423 1421 1420 1418 1416 1413 1410 1408 1405
1438 1438 1437 1437 1437 1437 1437 1436 1436 1436 1436 1436 1435 1436 1436 1436 1436 1436 1435 1435 1435 1434 1433 1432 1431 1429 1428 1427 1425 1423 1421 1419 1417 1416 1414 1412 1410 1408